Weather History for Mammoth, CA

Change the Weather History Date:

Friday, September 20, 2013

  Actual Average Record
Temperature  
Mean Temperature 11 °C -  
Max Temperature 24 °C 19 °C 28 °C (2000)
Min Temperature -1 °C 10 °C -1 °C (2013)
Degree Days  
Heating Degree Days 12    
Growing Degree Days 2 (Base 50)    
Moisture  
Dew Point -8 °C    
Average Humidity 27    
Maximum Humidity 55    
Minimum Humidity 11    
Precipitation  
Precipitation 0.00 mm - - ()
Sea Level Pressure  
Sea Level Pressure 1018 hPa    
Wind  
Wind Speed 10 km/h (SW)    
Max Wind Speed 32 km/h    
Max Gust Speed 52 km/h    
Visibility 16 kilometers    
Events      
Averages and records for this station are not official NWS values.
T = Trace of Precipitation, MM = Missing Value Source: NWS Daily Summary

Daily Weather History Graph

Daily Weather History Graph

Search for Another Location

Airport:

Trip Planner

Search our weather history database for the weather conditions in past years. The results will help you decide how hot, cold, wet, or windy it might be!

Date:

Astronomy

Sep. 20, 2013 Rise Set
Actual Time 6:41 AM PDT 6:54 PM PDT
Civil Twilight 6:15 AM PDT 7:20 PM PDT
Nautical Twilight 5:44 AM PDT 7:51 PM PDT
Astronomical Twilight 5:13 AM PDT 8:22 PM PDT
Moon 7:34 PM PDT (9/20) 7:59 AM PDT (9/20)
Length of Visible Light 13h 05m
Length of Day
12h 13m
Full, 98% of the Moon is Illuminated
Sep 20
Full
Sep 26
Last Quarter
Oct 4
New
Oct 11
First Quarter
Oct 18
Full

Hourly Weather History & Observations

Time (PDT) Temp. Windchill Dew Point Humidity Pressure Visibility Wind Dir Wind Speed Gust Speed Precip Events Conditions
12:15 AM 7.0 °C 5.7 °C -8.0 °C 34% 1020.5 hPa 16.1 km NNW 7.4 km/h / 2.1 m/s - N/A   Clear
12:35 AM 6.0 °C 4.0 °C -8.0 °C 36% 1020.5 hPa 16.1 km WNW 9.3 km/h / 2.6 m/s - N/A   Clear
12:55 AM 6.0 °C 4.5 °C -9.0 °C 34% 1020.5 hPa 16.1 km NW 7.4 km/h / 2.1 m/s - N/A   Clear
1:15 AM 5.0 °C 2.8 °C -9.0 °C 36% 1020.5 hPa 16.1 km NNW 9.3 km/h / 2.6 m/s - N/A   Clear
1:35 AM 5.0 °C 3.9 °C -9.0 °C 36% 1020.5 hPa 16.1 km North 5.6 km/h / 1.5 m/s - N/A   Clear
1:55 AM 3.0 °C 1.0 °C -10.0 °C 38% 1020.5 hPa 16.1 km North 7.4 km/h / 2.1 m/s - N/A   Clear
2:15 AM 4.0 °C - -9.0 °C 39% 1020.2 hPa 16.1 km Calm Calm - N/A   Clear
2:35 AM 3.0 °C - -9.0 °C 41% 1020.2 hPa 16.1 km Calm Calm - N/A   Clear
2:55 AM 2.0 °C 0.5 °C -10.0 °C 41% 1019.9 hPa 16.1 km NW 5.6 km/h / 1.5 m/s - N/A   Clear
3:15 AM 1.0 °C -0.7 °C -10.0 °C 44% 1019.9 hPa 16.1 km NNW 5.6 km/h / 1.5 m/s - N/A   Clear
3:35 AM 2.0 °C -0.2 °C -9.0 °C 44% 1019.9 hPa 16.1 km North 7.4 km/h / 2.1 m/s - N/A   Clear
3:55 AM 1.0 °C - -9.0 °C 48% 1019.9 hPa 16.1 km Calm Calm - N/A   Clear
4:15 AM 1.0 °C -1.4 °C -9.0 °C 48% 1019.9 hPa 16.1 km North 7.4 km/h / 2.1 m/s - N/A   Clear
4:35 AM 2.0 °C 0.5 °C -9.0 °C 44% 1019.9 hPa 16.1 km North 5.6 km/h / 1.5 m/s - N/A   Clear
4:55 AM 1.0 °C -1.4 °C -9.0 °C 48% 1019.9 hPa 16.1 km NNE 7.4 km/h / 2.1 m/s - N/A   Clear
5:15 AM 1.0 °C -0.7 °C -9.0 °C 48% 1019.5 hPa 16.1 km NNE 5.6 km/h / 1.5 m/s - N/A   Clear
5:35 AM 2.0 °C -0.7 °C -8.0 °C 48% 1019.5 hPa 16.1 km WNW 9.3 km/h / 2.6 m/s - N/A   Clear
5:55 AM 1.0 °C -0.7 °C -9.0 °C 48% 1019.9 hPa 16.1 km NW 5.6 km/h / 1.5 m/s - N/A   Clear
6:15 AM 1.0 °C - -8.0 °C 52% 1019.9 hPa 16.1 km Calm Calm - N/A   Clear
6:35 AM 2.0 °C - -8.0 °C 48% 1019.9 hPa 16.1 km Calm Calm - N/A   Clear
6:55 AM -1.0 °C - -9.0 °C 55% 1019.9 hPa 16.1 km Calm Calm - N/A   Clear
7:15 AM -1.0 °C -3.0 °C -9.0 °C 55% 1019.9 hPa 16.1 km WNW 5.6 km/h / 1.5 m/s - N/A   Clear
7:35 AM 1.0 °C -1.4 °C -8.0 °C 52% 1019.9 hPa 16.1 km NNE 7.4 km/h / 2.1 m/s - N/A   Clear
7:55 AM 5.0 °C - -7.0 °C 42% 1019.5 hPa 16.1 km Calm Calm - N/A   Clear
8:15 AM 8.0 °C - -8.0 °C 32% 1019.5 hPa 16.1 km Calm Calm - N/A   Clear
8:35 AM 10.0 °C - -7.0 °C 30% 1019.5 hPa 16.1 km SE 7.4 km/h / 2.1 m/s - N/A   Clear
8:55 AM 11.0 °C - -7.0 °C 28% 1019.5 hPa 16.1 km SE 11.1 km/h / 3.1 m/s - N/A   Clear
9:15 AM 13.0 °C - -7.0 °C 25% 1019.5 hPa 16.1 km ESE 7.4 km/h / 2.1 m/s - N/A   Clear
9:35 AM 15.0 °C - -7.0 °C 22% 1019.2 hPa 16.1 km SE 7.4 km/h / 2.1 m/s - N/A   Clear
9:55 AM 16.0 °C - -7.0 °C 20% 1019.2 hPa 16.1 km Calm Calm - N/A   Clear
10:15 AM 19.0 °C - -9.0 °C 14% 1019.2 hPa 16.1 km ESE 9.3 km/h / 2.6 m/s - N/A   Clear
10:35 AM 19.0 °C - -9.0 °C 14% 1018.8 hPa 16.1 km SSE 5.6 km/h / 1.5 m/s - N/A   Clear
10:55 AM 20.0 °C - -8.0 °C 15% 1018.5 hPa 16.1 km ESE 11.1 km/h / 3.1 m/s - N/A   Clear
11:15 AM 21.0 °C - -9.0 °C 13% 1018.2 hPa 16.1 km ENE 14.8 km/h / 4.1 m/s - N/A   Clear
11:35 AM 22.0 °C - -8.0 °C 13% 1018.2 hPa 16.1 km ESE 13.0 km/h / 3.6 m/s 27.8 km/h / 7.7 m/s N/A   Clear
11:55 AM 22.0 °C - -8.0 °C 13% 1017.8 hPa 16.1 km ESE 16.7 km/h / 4.6 m/s 25.9 km/h / 7.2 m/s N/A   Clear
12:15 PM 23.0 °C - -8.0 °C 12% 1017.5 hPa 16.1 km SSE 9.3 km/h / 2.6 m/s - N/A   Clear
12:35 PM 24.0 °C - -8.0 °C 11% 1017.5 hPa 16.1 km ESE 18.5 km/h / 5.1 m/s - N/A   Clear
12:55 PM 23.0 °C - -9.0 °C 11% 1017.2 hPa 16.1 km SE 13.0 km/h / 3.6 m/s 31.5 km/h / 8.7 m/s N/A   Clear
1:15 PM 23.0 °C - -9.0 °C 11% 1016.5 hPa 16.1 km ESE 16.7 km/h / 4.6 m/s 38.9 km/h / 10.8 m/s N/A   Clear
1:35 PM 23.0 °C - -9.0 °C 11% 1016.8 hPa 16.1 km SW 18.5 km/h / 5.1 m/s 35.2 km/h / 9.8 m/s N/A   Clear
1:55 PM 24.0 °C - -8.0 °C 11% 1016.1 hPa 16.1 km SW 29.6 km/h / 8.2 m/s 48.2 km/h / 13.4 m/s N/A   Clear
2:15 PM 24.0 °C - -8.0 °C 11% 1016.1 hPa 16.1 km SW 16.7 km/h / 4.6 m/s 44.4 km/h / 12.3 m/s N/A   Clear
2:35 PM 23.0 °C - -8.0 °C 12% 1016.5 hPa 16.1 km WSW 13.0 km/h / 3.6 m/s 44.4 km/h / 12.3 m/s N/A   Clear
2:55 PM 24.0 °C - -8.0 °C 11% 1016.1 hPa 16.1 km SW 22.2 km/h / 6.2 m/s 35.2 km/h / 9.8 m/s N/A   Clear
3:15 PM 23.0 °C - -7.0 °C 13% 1016.1 hPa 16.1 km WSW 22.2 km/h / 6.2 m/s 40.7 km/h / 11.3 m/s N/A   Clear
3:35 PM 23.0 °C - -8.0 °C 12% 1016.1 hPa 16.1 km South 9.3 km/h / 2.6 m/s 27.8 km/h / 7.7 m/s N/A   Clear
3:55 PM 23.0 °C - -7.0 °C 13% 1016.1 hPa 16.1 km SSW 11.1 km/h / 3.1 m/s 50.0 km/h / 13.9 m/s N/A   Clear
4:15 PM 23.0 °C - -6.0 °C 14% 1016.1 hPa 16.1 km South 16.7 km/h / 4.6 m/s 37.0 km/h / 10.3 m/s N/A   Clear
4:35 PM 22.0 °C - -6.0 °C 15% 1015.8 hPa 16.1 km South 31.5 km/h / 8.7 m/s 38.9 km/h / 10.8 m/s N/A   Clear
4:55 PM 22.0 °C - -6.0 °C 15% 1016.1 hPa 16.1 km SSW 11.1 km/h / 3.1 m/s 42.6 km/h / 11.8 m/s N/A   Clear
5:15 PM 21.0 °C - -6.0 °C 16% 1016.1 hPa 16.1 km SW 16.7 km/h / 4.6 m/s 42.6 km/h / 11.8 m/s N/A   Clear
5:35 PM 21.0 °C - -7.0 °C 15% 1015.8 hPa 16.1 km WSW 24.1 km/h / 6.7 m/s 33.3 km/h / 9.3 m/s N/A   Clear
5:55 PM 20.0 °C - -7.0 °C 16% 1015.8 hPa 16.1 km SSW 27.8 km/h / 7.7 m/s 42.6 km/h / 11.8 m/s N/A   Clear
6:15 PM 19.0 °C - -6.0 °C 18% 1015.8 hPa 16.1 km SSW 11.1 km/h / 3.1 m/s 29.6 km/h / 8.2 m/s N/A   Clear
6:35 PM 19.0 °C - -7.0 °C 17% 1015.5 hPa 16.1 km Calm Calm - N/A   Clear
6:55 PM 18.0 °C - -9.0 °C 15% 1015.5 hPa 16.1 km ESE 7.4 km/h / 2.1 m/s - N/A   Clear
7:15 PM 18.0 °C - -10.0 °C 14% 1015.8 hPa 16.1 km West 5.6 km/h / 1.5 m/s 25.9 km/h / 7.2 m/s N/A   Clear
7:35 PM 17.0 °C - -9.0 °C 16% 1015.8 hPa 16.1 km WSW 27.8 km/h / 7.7 m/s 46.3 km/h / 12.9 m/s N/A   Clear
7:55 PM 17.0 °C - -10.0 °C 15% 1016.1 hPa 16.1 km West 11.1 km/h / 3.1 m/s - N/A   Clear
8:15 PM 16.0 °C - -10.0 °C 16% 1016.5 hPa 16.1 km West 14.8 km/h / 4.1 m/s 35.2 km/h / 9.8 m/s N/A   Clear
8:35 PM 16.0 °C - -10.0 °C 16% 1016.5 hPa 16.1 km West 25.9 km/h / 7.2 m/s 38.9 km/h / 10.8 m/s N/A   Clear
8:55 PM 15.0 °C - -8.0 °C 20% 1016.5 hPa 16.1 km WSW 11.1 km/h / 3.1 m/s 25.9 km/h / 7.2 m/s N/A   Clear
9:15 PM 15.0 °C - -8.0 °C 20% 1016.1 hPa 16.1 km West 5.6 km/h / 1.5 m/s 50.0 km/h / 13.9 m/s N/A   Clear
9:35 PM 14.0 °C - -8.0 °C 21% 1016.1 hPa 16.1 km WSW 14.8 km/h / 4.1 m/s - N/A   Clear
9:55 PM 15.0 °C - -10.0 °C 17% 1016.5 hPa 16.1 km WSW 13.0 km/h / 3.6 m/s 37.0 km/h / 10.3 m/s N/A   Clear
10:15 PM 15.0 °C - -10.0 °C 17% 1016.1 hPa 16.1 km SW 18.5 km/h / 5.1 m/s 51.9 km/h / 14.4 m/s N/A   Clear
10:35 PM 15.0 °C - -9.0 °C 19% 1016.1 hPa 16.1 km Calm Calm - N/A   Clear
10:55 PM 12.0 °C - -7.0 °C 26% 1016.1 hPa 16.1 km South 13.0 km/h / 3.6 m/s - N/A   Clear
11:15 PM 10.0 °C - -4.0 °C 37% 1016.1 hPa 16.1 km SE 11.1 km/h / 3.1 m/s - N/A   Clear
11:35 PM 10.0 °C - -2.0 °C 43% 1016.1 hPa 16.1 km SSW 5.6 km/h / 1.5 m/s - N/A   Clear
11:55 PM 10.0 °C - -4.0 °C 37% 1016.1 hPa 16.1 km West 9.3 km/h / 2.6 m/s - N/A   Clear